Regional Weather Roundup
Issued by NWS

Home | Current Version | Previous Version | Text Only | Print | Product List | Glossary Off
Versions: 1 2 3 4 5 6 7 8 9 10 11 12 13 14 15 16 17 18 19 20 21 22 23 24 25 26 27 28 29 30 31 32 33 34 35 36 37 38 39 40 41 42 43 44 45 46 47 48 49 50

000
ASUS43 KFSD 300010
RWRSD

WEATHER ROUNDUP FOR SOUTH DAKOTA
NATIONAL WEATHER SERVICE SIOUX FALLS SD
700 PM CDT SUN MAR 29 2015

NOTE: "FAIR" INDICATES FEW OR NO CLOUDS BELOW 12,000 FEET WITH NO
SIGNIFICANT WEATHER AND/OR OBSTRUCTIONS TO VISIBILITY.


SDZ001>005-009-010-012>017-300100-
NORTHWEST AND NORTH CENTRAL SOUTH DAKOTA

CITY           SKY/WX    TMP DP  RH WIND       PRES   REMARKS
BUFFALO          N/A     59  26  28 W22       29.97F
FAITH            N/A     60  27  28 NW14      30.02F
MOBRIDGE       SUNNY     61  31  32 NW13      29.97F
$$

SDZ012>016-024>037-041>051-057-063-072>074-300100-
SOUTHWEST AND SOUTH CENTRAL SOUTH DAKOTA

CITY           SKY/WX    TMP DP  RH WIND       PRES   REMARKS
RAPID CTY ARPT CLOUDY    60  26  27 N6        30.06F
PIERRE         SUNNY     61  27  27 NW10      30.02F
CUSTER         CLOUDY    54  20  26 W6        30.11F
ELLSWORTH AFB  CLOUDY    60  27  28 N8        30.05F
PHILIP         SUNNY     64  23  21 NW9       30.03F
PINE RIDGE     MOSUNNY   63  23  21 NW9       30.08F
SPEARFISH      FAIR      55  25  30 NW8       30.08F
WINNER         FAIR      62  18  18 NW12      30.07S
$$

SDZ004>011-016>023-039-040-300100-
NORTHEAST SOUTH DAKOTA

CITY           SKY/WX    TMP DP  RH WIND       PRES   REMARKS
ABERDEEN       CLEAR     58  22  24 NW14      30.00F
WATERTOWN      CLEAR     52  25  35 NW14      29.99S
SISSETON         N/A     54  27  35 NW14      29.95S
$$

SDZ017-020-022-023-036>040-048>070-300100-
SOUTHEAST SOUTH DAKOTA

CITY           SKY/WX    TMP DP  RH WIND       PRES   REMARKS
SIOUX FALLS    CLEAR     56  19  23 NW16      30.02R
HURON          CLEAR     58  19  22 NW15      30.02S
CHAMBERLAIN    SUNNY     58  23  25 NW13      30.06S
MITCHELL       CLEAR     59  19  21 NW15      30.05R
YANKTON        CLEAR     59  18  20 NW18      30.05R
$$

ABBREVIATIONS USED IN REMARKS
   TC - TEMPERATURE IN CELSIUS
  WCI - WIND CHILL INDEX
   HX - HEAT INDEX
  VSB - VISIBILITY




USA.gov is the U.S. government's official web portal to all federal, state and local government web resources and services.